Tracking 25734 objects as of 28-May-2022
HD Live streaming from Space Station
objects crossing your sky now

NOAA 17 DEB

Track NOAA 17 DEB now!
10-day predictions


NORAD ID: 48739
Int'l Code: 2002-032BZ
Perigee: 716.3 km
Apogee: 799.3 km
Inclination: 98.8 °
Period: 99.8 minutes
Semi major axis: 7128 km
RCS: Unknown
Launch date: June 24, 2002
Source: United States (US)
Launch site: AIR FORCE WESTERN TEST RANGE (AFWTR)

Note: This is SATELLITE DEBRIS
aabbcc
Your satellite tracking list
Your tracking list is empty




NASA's NSSDC Master Catalog

Two Line Element Set (TLE):
1 48739U 02032BY  22148.14442425  .00006567  00000-0  19584-2 0  9994
2 48739  98.7828 111.5676 0058204 140.0496 220.4997 14.42387424 61891
Source of the keplerian elements: AFSPC